Location: Black Swamp Observatory
(41.3920°N, 84.1250°W)
Time: 05:35:22
(UTC-05:00)

A-11 Canister half - Visible Passes

Search period start: 19 January 2022 00:00
Search period end: 29 January 2022 00:00
Orbit: 1524 x 1684 km, 47.3° (Epoch: 18 January)

Date Brightness Start Highest point End Pass type
(mag) Time Alt. Az. Time Alt. Az. Time Alt. Az.
19 Jan 9.4 19:28:05 10° WNW 19:37:47 67° SW 19:47:04 12° SE visible
19 Jan 10.8 21:34:41 10° W 21:41:36 22° SW 21:45:28 17° SSW visible
20 Jan 9.4 19:06:23 10° WNW 19:16:06 69° SW 19:26:05 10° SE visible
20 Jan 10.7 21:12:49 10° W 21:19:59 23° SW 21:26:29 12° S visible
21 Jan 9.4 18:44:43 10° WNW 18:54:25 72° SW 19:04:24 10° SE visible
21 Jan 10.7 20:50:58 10° W 20:58:22 25° SW 21:05:55 10° S visible
22 Jan 9.4 18:23:02 10° WNW 18:32:44 74° SSW 18:42:44 10° SE visible
22 Jan 10.7 20:29:08 10° WNW 20:36:45 26° SW 20:44:30 10° S visible
23 Jan 9.4 18:01:21 10° WNW 18:11:03 77° SSW 18:21:03 10° SE visible
23 Jan 10.7 20:07:20 10° WNW 20:15:07 28° SW 20:23:05 10° S visible
24 Jan 10.7 19:45:31 10° WNW 19:53:30 29° SW 20:01:39 10° S visible
25 Jan 10.7 19:23:45 10° WNW 19:31:52 31° SW 19:40:11 10° S visible
26 Jan 10.7 19:01:59 10° WNW 19:10:15 32° SW 19:18:43 10° S visible
27 Jan 10.7 18:40:14 10° WNW 18:48:37 34° SW 18:57:13 10° SSE visible
28 Jan 10.7 18:18:28 10° WNW 18:26:59 36° SW 18:35:43 10° SSE visible
